This is the latest recevied weather packets stored in our database for station/object K7LER. If no packets are shown the sender has not sent any weather packets the latest 10 day(s).
| Time | Temp. | Humidity | Pressure | Rain* | Wind** | Luminosity | Snow |
|---|---|---|---|---|---|---|---|
| 1777158334 | 17.22° C | 21% | 1009.7 hPa | 0 mm | - | 664 W/m² | - |
| 1777158042 | 17.22° C | 21% | 1009.8 hPa | 0 mm | - | 679 W/m² | - |
| 1777157734 | 17.22° C | 21% | 1009.8 hPa | 0 mm | - | 689 W/m² | - |
| 1777157433 | 17.22° C | 20% | 1009.9 hPa | 0 mm | - | 701 W/m² | - |
| 1777157150 | 17.22° C | 20% | 1009.9 hPa | 0 mm | - | 712 W/m² | - |
| 1777156832 | 17.22° C | 19% | 1009.9 hPa | 0 mm | - | 726 W/m² | - |
| 1777156536 | 17.22° C | 19% | 1010 hPa | 0 mm | - | 738 W/m² | - |
| 1777156247 | 17.22° C | 21% | 1010.1 hPa | 0 mm | - | 747 W/m² | - |
| 1777155935 | 17.22° C | 21% | 1010.3 hPa | 0 mm | - | 756 W/m² | - |
| 1777155634 | 17.22° C | 23% | 1010.2 hPa | 0 mm | - | 766 W/m² | - |
| 1777155351 | 17.22° C | 22% | 1010.2 hPa | 0 mm | - | 777 W/m² | - |
| 1777155034 | 16.67° C | 22% | 1010.3 hPa | 0 mm | - | 786 W/m² | - |
| 1777154733 | 16.67° C | 22% | 1010.3 hPa | 0 mm | - | 795 W/m² | - |
| 1777154445 | 16.67° C | 22% | 1010.4 hPa | 0 mm | - | 803 W/m² | - |
| 1777154135 | 16.67° C | 25% | 1010.5 hPa | 0 mm | - | 810 W/m² | - |
| 1777153836 | 16.67° C | 26% | 1010.4 hPa | 0 mm | - | 817 W/m² | - |
| 1777153550 | 16.67° C | 28% | 1010.6 hPa | 0 mm | - | 823 W/m² | - |
| 1777153235 | 16.67° C | 30% | 1010.7 hPa | 0 mm | - | 830 W/m² | - |
| 1777152934 | 16.11° C | 32% | 1010.7 hPa | 0 mm | - | 833 W/m² | - |
| 1777152639 | 16.11° C | 33% | 1010.8 hPa | 0 mm | - | 835 W/m² | - |
| 1777152334 | 16.11° C | 34% | 1010.9 hPa | 0 mm | - | 81 W/m² | - |
| 1777152034 | 16.11° C | 38% | 1010.9 hPa | 0 mm | - | 60 W/m² | - |
| 1777151754 | 16.11° C | 37% | 1010.9 hPa | 0 mm | - | 847 W/m² | - |
| 1777151434 | 16.11° C | 36% | 1010.9 hPa | 0 mm | - | 854 W/m² | - |
| 1777151136 | 16.11° C | 32% | 1011 hPa | 0 mm | - | 860 W/m² | - |
* Rain latest hour (hover to see other rain measurements)
** Current wind speed in m/s (hover to see current wind gust speed)